STARLINK-11433, 62008

Orbit data source: Space-Track

STARLINK-11433, 62008 is a payload satellite owned by SpaceX/Seattle (US) in LEO that was launched on Mon, 18 Nov 2024 UTC via an FALCON 9 launch vehicle from the Air Force Western Test Range (AFWTR). Payloads include a variety of satellites, spacecraft, and rockets equipped with specific instruments for various scientific and technological missions. These include communications satellites like Starlink; space stations such as the ISS; scientific satellites like the Hubble; Earth observation satellites from companies like Planet Labs, Umbra, and HawkEye 360; GPS; miniature CubeSats for education and research; and military/defense satellites.

Not visible in the next 10 days
STARLINK-11433 details
Identifier
62008, 2024-213A
Orbit
LEO
Last TLE update10 hours ago
Origin
Flag of USSpaceX/Seattle (US)
ManufacturerSpaceX/Seattle
MissionOperational spacecraft
Bus & MotorSTARLINK V2M, Unknown motor
Mass730 kg wet, ~700 kg dry
Launch date (UTC)
2024-11-18 (2 weeks ago)
Launch vehicle
FALCON 9
Launch site
Air Force Western Test Range (AFWTR)
Object type
Payload
Rocket body
Debris
Shape & HBRUnknown
Radar Cross SectionLarge (>1 m²)

Expand to show TLE details & history

TLE from 10 hours ago
0 STARLINK-11433
1 62008U 24213A   24337.03355727  .00013307  00000-0  45253-4 0  9996
2 62008  53.1623 166.1250 0000572 172.4183 187.6852 15.90303628  3398
Epoch: 2024-12-02T00:48Z
Definitive object data (Epoch: 2024-12-02T00:48:19.348Z)
Latitude-0.00005°
Longitude82.68112°
Altitude302.734 km
Speed7.727 km/s
True Right ascension11h 04m 29s
True Declination0° 00' 00"
Sunlit
Object was in daylight at TLE epoch
Visualization TLE readout
Latitude46.26445°
Longitude-150.46275°
Altitude306.148 km
Speed7.73 km/s
Apparent Right ascension19h 49m 55s
Apparent Declination4° 25' 48"
Sunlit
Object is in daylight
Visualization observer readout
Local Sidereal Time08:06:54
Azimuth6.049° NNE
Elevation-45.482°
Doppler factor1
Orbital elements
Apogee altitude302.077 km
Perigee altitude301.313 km
Semi-major axis6,679.832 km
Eccentricity0.0000572
Inclination53.1623°
RAAN166.125°
Arg. of periapsis172.4183°
True anomaly187.68432°
Mean anomaly187.6852°
Eccentric anomaly187.68476°
Mean motion3.97553 °/min
BSTAR0.000045253
Orbital period90.55 mins
Loading maneuver chart data...
Loading historical data...
Loading historical data...
Loading historical data...
Loading historical data...
Loading historical data...
Loading historical data...
Loading historical data...

STARLINK-11433 Visibility forecast

Observer location: undefined°, undefined

STARLINK-11433 is not visible in the next 10 days
Span
Click to sort rows by Start time (UTC) header in descending order
Start Az.
Max El. time (UTC)
Max El. Az.
Max El.
End time (UTC)
End Az.
|